DECAYED

STARLINK-2003, 47598 (Decayed)

Orbit data source: Space-Track

STARLINK-2003, 47598 was a payload satellite owned by SpaceX/Seattle (US) in LEO that was launched on Thu, 04 Feb 2021 UTC via an FALCON 9 launch vehicle from the Air Force Eastern Test Range (AFETR). Payload-class satellites include a variety of spacecraft equipped with specific instruments for various scientific and technological missions. These include communications satellites like Starlink; space stations such as the ISS; scientific satellites like the Hubble; Earth observation satellites from companies like Planet Labs, Umbra, and HawkEye 360; GPS; miniature CubeSats for education and research; and military/defense satellites.

Not visible in the next 10 days
Identifier
47598, 2021-009BC
Orbit
Decayed
Country
Flag of USUS
Related business
Manufacturer
SpaceX/Seattle
Mission
Decayed Commercial Communications
Bus & Motor
STARLINK, Unknown motor
Mass
260 kg wet, ~248 kg dry
Launch date (UTC)
2021-02-04 (5 years ago)
Launch vehicle
FALCON 9
Launch site
Air Force Eastern Test Range (AFETR)
Object type
Payload
Rocket body
Debris
Shape & HBR
Box + 1 Pan, 10.1 m
Radar Cross Section
13.562 m², Large (>1 m²)

Expand to show TLE details & history
Last TLE update: 1 year ago

TLE from 1 year ago
0 STARLINK-2003
1 47598U 21009BC  25081.14933155  .21571474  12491-4  51828-3 0  9991
2 47598  53.0213 104.0711 0004366 238.1127 241.4868 16.46033084229119
Epoch: 2025-03-22T03:35Z
TLE epoch observation values (Epoch: 2025-03-22T03:35:02.245Z)
Latitude
44.16614°
Longitude
3.76512°
Altitude
155.613 km
Speed
7.818 km/s
True Right ascension
15h 49m 41s
True Declination
43° 58' 42"
Sunlit
Object was in full shadow at epoch
Visualization orbit readout
Latitude
Unknown
Longitude
Unknown
Altitude
Unknown
Speed
Unknown
Apparent Right ascension
Unknown
Apparent Declination
Unknown
Sunlit
N/A
Visualization observer readout
Local Sidereal Time
21:26:36
Azimuth
Unknown
Elevation
Unknown
Doppler factor
Unknown
Orbital elements
Apogee altitude
152.945 km
Perigee altitude
147.245 km
Semi-major axis
6,528.232 km
Eccentricity
0.00044
Inclination
53.0213°
RAAN
104.0711°
Arg. of periapsis
238.1127°
True anomaly
241.44285°
Mean anomaly
241.4868°
Eccentric anomaly
241.46482°
Mean motion
4.11481 °/min
Orbital period
87.49 mins
BSTAR
0.00051828
Loading maneuver chart data...
Computing Atmospheric mass density...

Documentation

Showing up to 5 results
|